Previsão horária em Barroquinha

Hoje, 21 Janeiro, Quinta-feira

Tempo Temperatura Precipitação Vento Pressão Humidade
00:00 +24°C° 0 mm 2 m/s 755 mmHg 92%
01:00 +24°C° 0 mm 2 m/s 755 mmHg 92%
02:00 +24°C° 0 mm 2 m/s 755 mmHg 93%
03:00 +24°C° 0 mm 2 m/s 754 mmHg 93%
04:00 +24°C° 0.1 mm 2 m/s 755 mmHg 93%
05:00 +24°C° 0.1 mm 2 m/s 755 mmHg 94%
06:00 +24°C° 0.1 mm 2 m/s 755 mmHg 94%
07:00 +26°C° 0 mm 3 m/s 756 mmHg 88%
08:00 +27°C° 0 mm 3 m/s 756 mmHg 81%
09:00 +29°C° 0 mm 4 m/s 756 mmHg 75%
10:00 +30°C° 0 mm 4 m/s 756 mmHg 68%
11:00 +33°C° 0 mm 4 m/s 756 mmHg 61%
12:00 +34°C° 0 mm 4 m/s 756 mmHg 54%
13:00 +33°C° 0.4 mm 4 m/s 755 mmHg 61%
14:00 +32°C° 0.4 mm 4 m/s 755 mmHg 69%
15:00 +29°C° 0.4 mm 4 m/s 754 mmHg 77%
16:00 +29°C° 0.1 mm 4 m/s 754 mmHg 78%
17:00 +28°C° 0.1 mm 4 m/s 755 mmHg 79%
18:00 +28°C° 0.1 mm 3 m/s 755 mmHg 81%
19:00 +27°C° 0 mm 3 m/s 755 mmHg 82%
20:00 +27°C° 0 mm 3 m/s 756 mmHg 83%
21:00 +27°C° 0 mm 3 m/s 757 mmHg 84%
22:00 +27°C° 0.1 mm 3 m/s 756 mmHg 86%
23:00 +26°C° 0.1 mm 2 m/s 756 mmHg 88%

Amanhã, 22 Janeiro, Sexta-feira

Tempo Temperatura Precipitação Vento Pressão Humidade
00:00 +26°C° 0.1 mm 2 m/s 756 mmHg 90%
01:00 +25°C° 0.2 mm 2 m/s 756 mmHg 92%
02:00 +25°C° 0.2 mm 2 m/s 756 mmHg 94%
03:00 +25°C° 0.2 mm 2 m/s 755 mmHg 96%
04:00 +25°C° 0.2 mm 2 m/s 756 mmHg 97%
05:00 +24°C° 0.2 mm 2 m/s 756 mmHg 97%
06:00 +24°C° 0.2 mm 2 m/s 756 mmHg 98%
07:00 +26°C° 0.1 mm 3 m/s 757 mmHg 88%
08:00 +28°C° 0.1 mm 3 m/s 757 mmHg 78%
09:00 +30°C° 0.1 mm 3 m/s 758 mmHg 68%
10:00 +31°C° 0 mm 3 m/s 757 mmHg 62%
11:00 +34°C° 0 mm 4 m/s 757 mmHg 55%
12:00 +35°C° 0 mm 4 m/s 757 mmHg 49%
13:00 +34°C° 0.3 mm 4 m/s 756 mmHg 56%
14:00 +33°C° 0.3 mm 4 m/s 756 mmHg 63%
15:00 +30°C° 0.3 mm 3 m/s 755 mmHg 70%
16:00 +29°C° 0.7 mm 3 m/s 755 mmHg 76%
17:00 +28°C° 0.7 mm 3 m/s 755 mmHg 83%
18:00 +27°C° 0.7 mm 3 m/s 756 mmHg 89%
19:00 +27°C° 0.9 mm 3 m/s 756 mmHg 90%
20:00 +26°C° 0.9 mm 2 m/s 757 mmHg 91%
21:00 +26°C° 0.9 mm 2 m/s 757 mmHg 93%
22:00 +26°C° 0.4 mm 2 m/s 757 mmHg 93%
23:00 +25°C° 0.4 mm 1 m/s 756 mmHg 94%

Depois de amanhã, 23 Janeiro, Sábado

Tempo Temperatura Precipitação Vento Pressão Humidade
00:00 +25°C° 0.4 mm 1 m/s 756 mmHg 94%
01:00 +25°C° 0 mm 1 m/s 756 mmHg 94%
02:00 +25°C° 0 mm 1 m/s 755 mmHg 95%
03:00 +25°C° 0 mm 2 m/s 755 mmHg 95%
04:00 +25°C° 0.1 mm 2 m/s 755 mmHg 95%
05:00 +25°C° 0.1 mm 2 m/s 755 mmHg 96%
06:00 +25°C° 0.1 mm 2 m/s 756 mmHg 96%
07:00 +27°C° 0 mm 2 m/s 756 mmHg 86%
08:00 +29°C° 0 mm 3 m/s 757 mmHg 76%
09:00 +30°C° 0 mm 3 m/s 757 mmHg 66%
10:00 +32°C° 0.2 mm 4 m/s 757 mmHg 63%
11:00 +33°C° 0.2 mm 4 m/s 756 mmHg 61%
12:00 +34°C° 0.2 mm 4 m/s 756 mmHg 58%
13:00 +33°C° 1.2 mm 4 m/s 755 mmHg 62%
14:00 +33°C° 1.2 mm 4 m/s 755 mmHg 67%
15:00 +32°C° 1.2 mm 4 m/s 754 mmHg 71%
16:00 +30°C° 1.2 mm 4 m/s 754 mmHg 76%
17:00 +29°C° 1.2 mm 3 m/s 754 mmHg 81%
18:00 +27°C° 1.2 mm 3 m/s 755 mmHg 86%
19:00 +27°C° 0.7 mm 3 m/s 755 mmHg 87%
20:00 +27°C° 0.7 mm 3 m/s 756 mmHg 88%
21:00 +26°C° 0.7 mm 3 m/s 756 mmHg 89%
22:00 +26°C° 0.1 mm 3 m/s 756 mmHg 90%
23:00 +25°C° 0.1 mm 3 m/s 756 mmHg 92%

24 Janeiro, Domingo

Tempo Temperatura Precipitação Vento Pressão Humidade
00:00 +25°C° 0.1 mm 2 m/s 756 mmHg 93%
01:00 +25°C° 0.1 mm 2 m/s 755 mmHg 94%
02:00 +25°C° 0.1 mm 2 m/s 755 mmHg 95%
03:00 +24°C° 0.1 mm 2 m/s 754 mmHg 96%
04:00 +24°C° 0.1 mm 2 m/s 755 mmHg 95%
05:00 +24°C° 0.1 mm 2 m/s 755 mmHg 95%
06:00 +24°C° 0.1 mm 3 m/s 755 mmHg 95%
07:00 +26°C° 0.1 mm 3 m/s 755 mmHg 86%
08:00 +28°C° 0.1 mm 3 m/s 756 mmHg 77%
09:00 +30°C° 0.1 mm 4 m/s 756 mmHg 68%
10:00 +30°C° 0.6 mm 4 m/s 756 mmHg 69%
11:00 +32°C° 0.6 mm 4 m/s 755 mmHg 69%
12:00 +32°C° 0.6 mm 4 m/s 755 mmHg 70%
13:00 +32°C° 1.4 mm 4 m/s 754 mmHg 72%
14:00 +32°C° 1.4 mm 4 m/s 754 mmHg 74%
15:00 +30°C° 1.4 mm 4 m/s 753 mmHg 76%
16:00 +29°C° 0.7 mm 4 m/s 753 mmHg 79%
17:00 +28°C° 0.7 mm 4 m/s 753 mmHg 83%
18:00 +27°C° 0.7 mm 4 m/s 753 mmHg 87%
19:00 +27°C° 0.2 mm 4 m/s 754 mmHg 88%
20:00 +26°C° 0.2 mm 4 m/s 755 mmHg 89%
21:00 +26°C° 0.2 mm 4 m/s 755 mmHg 90%
22:00 +26°C° 0.2 mm 3 m/s 755 mmHg 92%
23:00 +25°C° 0.2 mm 3 m/s 755 mmHg 94%

25 Janeiro, Segunda-feira

Tempo Temperatura Precipitação Vento Pressão Humidade
00:00 +25°C° 0.2 mm 3 m/s 755 mmHg 95%
01:00 +25°C° 0 mm 3 m/s 754 mmHg 96%
02:00 +25°C° 0 mm 3 m/s 754 mmHg 97%
03:00 +24°C° 0 mm 3 m/s 754 mmHg 97%
04:00 +25°C° 0 mm 3 m/s 754 mmHg 96%
05:00 +25°C° 0 mm 3 m/s 754 mmHg 96%
06:00 +25°C° 0 mm 3 m/s 754 mmHg 95%
07:00 +27°C° 0.1 mm 4 m/s 755 mmHg 86%
08:00 +29°C° 0.1 mm 4 m/s 755 mmHg 77%
09:00 +30°C° 0.1 mm 4 m/s 756 mmHg 68%
10:00 +33°C° 0 mm 4 m/s 755 mmHg 63%
11:00 +34°C° 0 mm 4 m/s 755 mmHg 57%
12:00 +35°C° 0 mm 4 m/s 755 mmHg 51%
13:00 +34°C° 0.6 mm 4 m/s 754 mmHg 59%
14:00 +33°C° 0.6 mm 4 m/s 753 mmHg 66%
15:00 +32°C° 0.6 mm 5 m/s 752 mmHg 74%
16:00 +30°C° 0.5 mm 4 m/s 753 mmHg 78%
17:00 +28°C° 0.5 mm 4 m/s 753 mmHg 83%
18:00 +27°C° 0.5 mm 3 m/s 753 mmHg 88%
19:00 +27°C° 0.1 mm 3 m/s 753 mmHg 89%
20:00 +27°C° 0.1 mm 3 m/s 754 mmHg 91%
21:00 +26°C° 0.1 mm 3 m/s 755 mmHg 93%
22:00 +26°C° 0.1 mm 3 m/s 754 mmHg 93%
23:00 +26°C° 0.1 mm 3 m/s 754 mmHg 94%

26 Janeiro, Terça-feira

Tempo Temperatura Precipitação Vento Pressão Humidade
00:00 +25°C° 0.1 mm 3 m/s 754 mmHg 95%
01:00 +25°C° 0.1 mm 3 m/s 754 mmHg 95%
02:00 +25°C° 0.1 mm 3 m/s 753 mmHg 95%
03:00 +25°C° 0.1 mm 3 m/s 753 mmHg 96%
04:00 +25°C° 0 mm 3 m/s 753 mmHg 95%
05:00 +25°C° 0 mm 3 m/s 754 mmHg 95%
06:00 +25°C° 0 mm 4 m/s 754 mmHg 95%
07:00 +27°C° 0 mm 4 m/s 755 mmHg 85%
08:00 +29°C° 0 mm 4 m/s 755 mmHg 76%
09:00 +32°C° 0 mm 4 m/s 756 mmHg 66%
10:00 +33°C° 0 mm 4 m/s 755 mmHg 60%
11:00 +35°C° 0 mm 4 m/s 755 mmHg 54%
12:00 +36°C° 0 mm 4 m/s 755 mmHg 48%
13:00 +35°C° 0.6 mm 4 m/s 754 mmHg 55%
14:00 +34°C° 0.6 mm 4 m/s 753 mmHg 62%
15:00 +33°C° 0.6 mm 4 m/s 753 mmHg 69%
16:00 +30°C° 0.2 mm 4 m/s 753 mmHg 73%
17:00 +29°C° 0.2 mm 4 m/s 753 mmHg 77%
18:00 +28°C° 0.2 mm 4 m/s 753 mmHg 80%
19:00 +28°C° 0.3 mm 4 m/s 754 mmHg 81%
20:00 +28°C° 0.3 mm 4 m/s 754 mmHg 81%
21:00 +27°C° 0.3 mm 3 m/s 755 mmHg 82%
22:00 +27°C° 0.4 mm 3 m/s 755 mmHg 84%
23:00 +26°C° 0.4 mm 3 m/s 755 mmHg 86%
Mostrar mais

Necessitamos do seu Consentimento

A Meteoprog e os seus Fornecedores de Serviços podem armazenar e aceder a dados pessoais como cookies, identificadores do dispositivo ou outras tecnologias semelhantes existentes no seu dispositivo e processar estes dados para personalizar conteúdos e anúncios, assim como funcionalidades nas redes sociais e análise de tráfego.

  • Armazenar e/ou aceder a informações no seu dispositivo

    Os cookies, identificadores do dispositivo ou outras informações podem ser armazenados ou acedidos no seu dispositivo, para os fins acima indicados.

  • Anúncios e conteúdos personalizados, medição de anúncios e conteúdos, dados sobre o público-alvo e desenvolvimento de produtos

    Os anúncios e os conteúdos podem ser personalizados com base num perfil. Podem ser adicionados dados adicionais para uma maior personalização dos anúncios e dos conteúdos. A eficácia dos anúncios e dos conteúdos pode ser medida. Podem ser obtidas informações sobre o público que visualizou os anúncios e os conteúdos. Estes dados podem ser usados para desenvolver ou melhorar sistemas, softwares ou a experiência do utilizador.

Ao clicar em "Eu concordo”, permitirá o uso de cookies, identificadores do dispositivo e web beacons mencionados ou outras tecnologias semelhantes. As configurações do navegador do seu dispositivo podem ser alteradas.

Para certos fins, podem ser invocados interesses legítimos ao invés de consentimento. Pode ler mais informação sobre este assunto na nossa Política de Privacidade e Cookies.